[[[{"header":{"parameterUnit":"kt","parameterCategory":2,"dx":1,"dy":1,"la1":30.253999710083008,"la2":30.299108505249023,"lo1":-89.0895004272461,"lo2":-89.04439544677734,"nx":28,"ny":28,"refTime":"2022-11-01T21:00:00:Z","depth":0,"parameterNumber":1,"parameterNumberName":"U-component_of_WINDS"},"data":[-4.7361,-4.7532,-4.7529,-4.7724,-4.7753,-4.7887,-4.7934,-4.7995,-4.8042,-4.8203,-4.8295,-4.8311,-4.836,-4.8471,-4.8573,-4.8578,-4.8623,-4.8686,-4.8682,-4.8399,-4.836,-4.8323,-4.8283,-4.8695,-4.8695,-4.8977,-4.898,-4.8982,-4.7156,-4.7187,-4.7288,-4.7384,-4.7471,-4.7408,-4.748,-4.7559,-4.768,-4.774,-4.783,-4.7972,-4.8084,-4.8112,-4.8221,-4.8304,-4.8283,-4.8334,-4.833,-4.834,-4.8036,-4.7993,-4.835,-4.835,-4.8349,-4.8349,-4.8349,-4.8349,-4.6782,-4.6885,-4.694,-4.705,-4.7097,-4.7162,-4.726,-4.7275,-4.7375,-4.7486,-4.7462,-4.7601,-4.7662,-4.7791,-4.7834,-4.7944,-4.7887,-4.7944,-4.7959,-4.7975,-4.7993,-4.7593,-4.7962,-4.7961,-4.796,-4.7959,-4.7958,0,-4.6509,-4.6498,-4.6594,-4.669,-4.677,-4.6844,-4.6912,-4.6972,-4.695,-4.7035,-4.7157,-4.7227,-4.7366,-4.7483,-4.7584,-4.7617,-4.7565,-4.7558,-4.7597,-4.7614,-4.7615,-4.762,-4.7129,-4.7548,-4.7545,-4.7542,-4.754,-4.7539,-4.6135,-4.6253,-4.6308,-4.6377,-4.6412,-4.6523,-4.6588,-4.656,-4.6631,-4.6712,-4.6805,-4.6919,-4.701,-4.7208,-4.7228,-4.7334,-4.731,-4.7471,-4.7326,-4.7335,-4.7318,-4.7313,-4.7327,-4.7501,-4.7506,-4.751,-4.7513,0,-4.5926,-4.5917,-4.61,-4.6143,-4.6157,-4.6284,-4.6322,-4.6424,-4.6427,-4.6568,-4.66,-4.6607,-4.6729,-4.6721,-4.6859,-4.6853,-4.7068,-4.7039,-4.7047,-4.7042,-4.7189,-4.7177,-4.7657,-4.772,-4.7288,-4.7292,-4.7295,0,-4.5606,-4.5763,-4.5742,-4.5848,-4.6022,-4.5988,-4.6162,-4.6182,-4.6231,-4.6342,-4.6277,-4.6383,-4.6357,-4.6463,-4.6453,-4.6627,-4.6651,-4.6658,-4.6655,-4.6667,-4.6667,-4.6709,-4.6691,-4.6636,-4.6634,-4.6632,-4.663,0,-4.5282,-4.5453,-4.5625,-4.5663,-4.5725,-4.5807,-4.5837,-4.5891,-4.5957,-4.604,-4.6082,-4.6182,-4.6238,-4.6318,-4.6304,-4.6207,-4.6515,-4.6378,-4.6523,-4.6524,-4.6595,-4.6592,-4.7014,-4.6627,-4.6626,-4.6625,-4.6624,0,-4.5024,-4.5105,-4.5354,-4.5404,-4.5451,-4.5564,-4.5658,-4.5753,-4.5816,-4.5816,-4.5881,-4.5839,-4.5986,-4.5852,-4.6057,-4.5934,-4.5993,-4.6012,-4.6022,-4.6039,-4.589,-4.6135,-4.6533,-4.6577,-4.605,-4.6045,-4.6041,0,-4.4658,-4.4906,-4.4877,-4.5115,-4.5229,-4.5148,-4.5274,-4.533,-4.534,-4.544,-4.5451,-4.5566,-4.5463,-4.5499,-4.56,-4.5619,-4.5778,-4.5596,-4.5748,-4.5754,-4.5738,-4.6103,-4.6167,-4.6446,-4.5979,-4.5986,-4.599,0,-4.4374,-4.4444,-4.4489,-4.4531,-4.4597,-4.4692,-4.4836,-4.494,-4.5008,-4.5077,-4.52,-4.5359,-4.5289,-4.5348,-4.5324,-4.5431,-4.567,-4.5342,-4.5343,-4.5405,-4.5946,-4.6006,-4.6053,-4.563,-4.5638,-4.5644,-4.5941,0,-4.3992,-4.4113,-4.4231,-4.4325,-4.4396,-4.4543,-4.4531,-4.4608,-4.4576,-4.4583,-4.4761,-4.4806,-4.4915,-4.4964,-4.4935,-4.518,-4.5139,-4.5063,-4.4935,-4.5173,-4.5272,-4.5312,-4.4789,-4.4786,-4.4782,-4.478,0,0,-4.3647,-4.382,-4.3784,-4.392,-4.3978,-4.3891,-4.405,-4.4097,-4.4194,-4.4238,-4.4165,-4.4397,-4.4438,-4.4656,-4.4729,-4.4772,-4.4817,-4.4733,-4.5059,-4.509,-4.5119,-4.5224,-4.5266,-4.4774,-4.4773,-4.4772,-4.4771,0,-4.3505,-4.3541,-4.3697,-4.3742,-4.3809,-4.3807,-4.3844,-4.3896,-4.3908,-4.408,-4.401,-4.4115,-4.4301,-4.4354,-4.4406,-4.4705,-4.4649,-4.4739,-4.4904,-4.5027,-4.5062,-4.5093,-4.5204,-4.5244,-4.4763,-4.4763,-4.4763,0,-4.3226,-4.3261,-4.3334,-4.3458,-4.3501,-4.362,-4.3481,-4.3611,-4.37,-4.3602,-4.3775,-4.3799,-4.3869,-4.4074,-4.4166,-4.4103,-4.4497,-4.437,-4.439,-4.4402,-4.452,-4.4563,-4.46,-4.4102,-4.4099,-4.4097,0,0,-4.3106,-4.3217,-4.3247,-4.3427,-4.3458,-4.3458,-4.352,-4.3494,-4.3556,-4.3581,-4.3611,-4.3676,-4.3784,-4.3856,-4.3957,-4.4183,-4.4197,-4.4289,-4.432,-4.4346,-4.4371,-4.4496,-4.4538,-4.4089,-4.4088,-4.4088,0,0,-4.3049,-4.309,-4.3046,-4.3252,-4.3312,-4.3356,-4.3468,-4.3416,-4.3504,-4.3487,-4.3453,-4.3468,-4.366,-4.3687,-4.3573,-4.3912,-4.3784,-4.3811,-4.3887,-4.3927,-4.3957,-4.3949,-4.3441,0,0,0,0,0,-4.2898,-4.3084,-4.3043,-4.3076,-4.3234,-4.3377,-4.3397,-4.3372,-4.3282,-4.3371,-4.3388,-4.3322,-4.3619,-4.3517,-4.3552,-4.3681,-4.3978,-4.3998,-4.4016,-4.4167,-4.4208,-4.4243,0,0,0,0,0,0,-4.2911,-4.2951,-4.3038,-4.309,-4.3125,-4.337,-4.3213,-4.3211,-4.3272,-4.3256,-4.3321,-4.3324,-4.3307,-4.3498,-4.353,-4.3652,-4.343,-4.3986,-4.4002,-4.4017,-4.4181,-4.4215,-4.4244,0,0,0,0,0,-4.2921,-4.2953,-4.3212,-4.3087,-4.3117,-4.3127,-4.3206,-4.3203,-4.325,-4.3276,-4.3277,-4.3225,-4.3311,-4.3336,-4.3517,-4.3639,-4.3408,-4.342,-4.3996,-4.401,-4.4021,-4.4198,0,0,0,0,0,0,-4.2928,-4.2953,-4.3217,-4.3226,-4.3014,-4.3113,-4.3127,-4.3196,-4.3265,-4.3268,-4.3178,-4.3165,-4.3316,-4.3334,-4.3354,-4.3635,-4.339,-4.3402,-4.3409,-4.4006,-4.4017,-4.4026,0,0,0,0,0,0,-4.2935,-4.2961,-4.3221,-4.3131,-4.3129,-4.31,-4.3113,-4.3263,-4.3267,-4.3162,-4.3154,-4.3171,-4.3287,-4.3335,-4.335,-4.3584,-4.3376,-4.3387,-4.3395,-4.3401,-4.4015,-4.4023,0,0,0,0,0,0,-4.2945,-4.2967,-4.3129,-4.3127,-4.3125,-4.3218,-4.3232,-4.3396,-4.3186,-4.3161,-4.3167,-4.3158,-4.329,-4.3304,-4.3347,-4.3576,-4.3582,-4.3376,-4.3384,-4.339,-4.3393,0,0,0,0,0,0,0,-4.2954,-4.2813,-4.3167,-4.3124,-4.3121,-4.3304,-4.3306,-4.3309,-4.3184,-4.3177,-4.3169,-4.3162,-4.3309,-4.3322,-4.3335,-4.3569,0,0,-4.3375,-4.3381,0,0,0,0,0,0,0,0,-4.2804,-4.2811,-4.3167,-4.3169,-4.317,-4.3304,-4.3306,-4.3308,-4.3183,-4.3177,-4.3171,-4.3165,-4.3313,-4.3323,-4.3334,0,0,0,0,0,0,0,0,0,0,0,0,0,0,0,-4.3167,-4.3169,0,-4.3304,-4.3306,-4.3308,-4.3182,-4.3177,-4.3172,-4.3167,-4.3316,-4.3324,-4.3333,0,0,0,0,0,0,0,0,0,0,0,0,0,0,0,0,0,0,0,0,0,0,0,0,0,0,0,0,0,0,0,0,0,0,0,0,0,0,0,0,0,0,0,0,0,0,0,0,0,0,0,0,0,0,0,0,0,0,0,0,0,0,0,0,0,0,0,0,0]}],[{"header":{"parameterUnit":"kt","parameterCategory":2,"dx":1,"dy":1,"la1":30.253999710083008,"la2":30.299108505249023,"lo1":-89.0895004272461,"lo2":-89.04439544677734,"nx":28,"ny":28,"refTime":"2022-11-01T21:00:00:Z","depth":0,"parameterNumber":2,"parameterNumberName":"V-component_of_WINDS"},"data":[-5.3438,-5.3514,-5.3495,-5.3573,-5.3569,-5.3618,-5.363,-5.3643,-5.3648,-5.3704,-5.3733,-5.3721,-5.3718,-5.3748,-5.3777,-5.3771,-5.3785,-5.3825,-5.3811,-5.3648,-5.3624,-5.3601,-5.3582,-5.3829,-5.3829,-5.3983,-5.3984,-5.3985,-5.332,-5.3317,-5.3353,-5.3375,-5.3405,-5.3355,-5.3368,-5.3396,-5.3441,-5.3448,-5.3476,-5.3523,-5.3558,-5.3541,-5.3571,-5.3605,-5.3582,-5.3614,-5.3611,-5.3611,-5.3436,-5.3416,-5.3632,-5.3632,-5.3632,-5.3632,-5.3632,-5.3632,-5.3099,-5.3146,-5.3148,-5.3186,-5.3192,-5.3206,-5.3247,-5.3231,-5.3265,-5.3295,-5.3265,-5.3316,-5.3318,-5.3345,-5.3349,-5.3387,-5.3348,-5.3377,-5.3384,-5.3391,-5.3403,-5.3183,-5.3391,-5.339,-5.339,-5.3389,-5.3389,0,-5.2932,-5.2913,-5.2946,-5.2973,-5.3,-5.3019,-5.3033,-5.3058,-5.301,-5.304,-5.3082,-5.3103,-5.3143,-5.318,-5.3203,-5.3201,-5.3151,-5.3144,-5.3163,-5.3178,-5.3189,-5.3184,-5.2899,-5.3138,-5.3135,-5.3134,-5.3133,-5.3132,-5.2708,-5.2764,-5.2757,-5.2782,-5.2785,-5.2827,-5.2848,-5.2802,-5.2826,-5.2836,-5.2878,-5.2915,-5.2941,-5.3011,-5.2991,-5.3021,-5.2996,-5.309,-5.3001,-5.3013,-5.2997,-5.2995,-5.3,-5.3108,-5.3111,-5.3113,-5.3115,0,-5.2583,-5.2551,-5.2632,-5.2619,-5.2617,-5.2679,-5.2667,-5.2711,-5.269,-5.2747,-5.2758,-5.2726,-5.2767,-5.2732,-5.2772,-5.2752,-5.2851,-5.2827,-5.285,-5.2843,-5.2923,-5.2916,-5.3188,-5.3221,-5.2965,-5.2967,-5.2969,0,-5.2379,-5.2455,-5.2403,-5.2451,-5.2533,-5.2484,-5.2567,-5.2557,-5.2559,-5.2603,-5.2541,-5.2584,-5.2531,-5.257,-5.254,-5.2615,-5.2622,-5.2611,-5.2603,-5.2617,-5.2619,-5.2629,-5.2617,-5.2581,-5.258,-5.2579,-5.2578,0,-5.2187,-5.2248,-5.2327,-5.2335,-5.2328,-5.2366,-5.2365,-5.2366,-5.2387,-5.2408,-5.242,-5.2449,-5.2464,-5.2487,-5.2449,-5.239,-5.2539,-5.245,-5.2528,-5.2529,-5.2563,-5.2561,-5.2811,-5.2576,-5.2575,-5.2575,-5.2574,0,-5.2017,-5.204,-5.2159,-5.2152,-5.2169,-5.2221,-5.2245,-5.2282,-5.2287,-5.2272,-5.2288,-5.2241,-5.2304,-5.2218,-5.2303,-5.2236,-5.2255,-5.225,-5.2255,-5.2258,-5.2163,-5.2308,-5.2551,-5.2574,-5.2261,-5.2259,-5.2256,0,-5.1806,-5.1917,-5.1876,-5.199,-5.2036,-5.1962,-5.2019,-5.2026,-5.201,-5.2046,-5.2028,-5.207,-5.1999,-5.2007,-5.2054,-5.2037,-5.2123,-5.2024,-5.2076,-5.2079,-5.2077,-5.2299,-5.2344,-5.2501,-5.2223,-5.2226,-5.2229,0,-5.1638,-5.1629,-5.1652,-5.166,-5.1661,-5.1699,-5.1765,-5.1795,-5.1822,-5.1836,-5.1889,-5.1947,-5.1895,-5.191,-5.1875,-5.1925,-5.2063,-5.1863,-5.1862,-5.19,-5.2203,-5.2245,-5.2271,-5.2028,-5.2032,-5.2036,-5.2202,0,-5.1387,-5.1439,-5.1501,-5.152,-5.1544,-5.1613,-5.1575,-5.1605,-5.1569,-5.1551,-5.1628,-5.1624,-5.1655,-5.1675,-5.1641,-5.1768,-5.1741,-5.1685,-5.1598,-5.1745,-5.1799,-5.1821,-5.1521,-5.1519,-5.1516,-5.1514,0,0,-5.1193,-5.1266,-5.1218,-5.1279,-5.1297,-5.1218,-5.1296,-5.1304,-5.1321,-5.1335,-5.1286,-5.1368,-5.1367,-5.1464,-5.1507,-5.152,-5.1539,-5.1489,-5.1676,-5.1694,-5.171,-5.1769,-5.1792,-5.151,-5.1509,-5.1509,-5.1508,0,-5.1093,-5.1095,-5.1172,-5.1178,-5.1185,-5.1161,-5.118,-5.1172,-5.1164,-5.124,-5.1174,-5.1215,-5.1282,-5.1289,-5.1302,-5.1477,-5.1424,-5.1489,-5.1596,-5.1653,-5.1675,-5.1693,-5.1755,-5.1778,-5.1502,-5.1502,-5.1503,0,-5.092,-5.0915,-5.0949,-5.0985,-5.0988,-5.1038,-5.0937,-5.0995,-5.1031,-5.0941,-5.1017,-5.101,-5.1017,-5.1114,-5.1156,-5.1113,-5.1322,-5.1249,-5.1263,-5.1267,-5.132,-5.1346,-5.1369,-5.1068,-5.1067,-5.1066,0,0,-5.084,-5.0887,-5.0867,-5.096,-5.0967,-5.0933,-5.0956,-5.0922,-5.093,-5.0933,-5.0922,-5.0932,-5.0969,-5.0996,-5.103,-5.1142,-5.1139,-5.1197,-5.1218,-5.1235,-5.1248,-5.1306,-5.1332,-5.1061,-5.1061,-5.106,0,0,-5.08,-5.078,-5.0742,-5.0846,-5.0856,-5.0842,-5.09,-5.0853,-5.088,-5.0867,-5.0812,-5.0812,-5.0903,-5.0898,-5.0834,-5.0998,-5.0913,-5.0927,-5.0998,-5.1023,-5.1043,-5.1042,-5.073,0,0,0,0,0,-5.0679,-5.0783,-5.0749,-5.076,-5.0805,-5.0861,-5.0866,-5.0823,-5.0764,-5.0811,-5.0794,-5.0736,-5.0852,-5.0794,-5.0806,-5.0878,-5.0995,-5.1006,-5.1018,-5.1134,-5.1161,-5.1184,0,0,0,0,0,0,-5.0683,-5.0698,-5.0746,-5.0736,-5.0746,-5.0857,-5.0746,-5.0737,-5.0757,-5.0745,-5.0742,-5.0736,-5.07,-5.0785,-5.0797,-5.0865,-5.0726,-5.0999,-5.1009,-5.1018,-5.1144,-5.1166,-5.1184,0,0,0,0,0,-5.0686,-5.0698,-5.0781,-5.0734,-5.0743,-5.071,-5.0742,-5.0734,-5.0748,-5.0723,-5.0716,-5.0714,-5.0704,-5.071,-5.0792,-5.0861,-5.0718,-5.0722,-5.1006,-5.1014,-5.1021,-5.1154,0,0,0,0,0,0,-5.0688,-5.069,-5.0782,-5.0783,-5.0692,-5.0703,-5.0704,-5.0731,-5.0723,-5.0718,-5.0692,-5.0683,-5.0707,-5.0712,-5.0717,-5.0862,-5.0711,-5.0715,-5.0718,-5.1012,-5.1018,-5.1023,0,0,0,0,0,0,-5.0684,-5.0692,-5.0782,-5.0731,-5.0726,-5.0697,-5.0697,-5.076,-5.0724,-5.0693,-5.0685,-5.0688,-5.0698,-5.0713,-5.0717,-5.0817,-5.0706,-5.071,-5.0713,-5.0715,-5.1017,-5.1022,0,0,0,0,0,0,-5.0686,-5.0693,-5.0731,-5.0727,-5.0722,-5.0728,-5.0751,-5.08,-5.0681,-5.0695,-5.0669,-5.0664,-5.0702,-5.0705,-5.0718,-5.0816,-5.0816,-5.0706,-5.0709,-5.0711,-5.0712,0,0,0,0,0,0,0,-5.0688,-5.0653,-5.0777,-5.0723,-5.0718,-5.0791,-5.0791,-5.0792,-5.068,-5.0675,-5.0671,-5.0666,-5.0681,-5.0685,-5.069,-5.0815,0,0,-5.0705,-5.0707,0,0,0,0,0,0,0,0,-5.0649,-5.0652,-5.0777,-5.0777,-5.0777,-5.0791,-5.0791,-5.0792,-5.0679,-5.0675,-5.0672,-5.0668,-5.0682,-5.0686,-5.069,0,0,0,0,0,0,0,0,0,0,0,0,0,0,0,-5.0777,-5.0777,0,-5.0791,-5.0791,-5.0792,-5.0679,-5.0676,-5.0672,-5.0669,-5.0683,-5.0686,-5.0689,0,0,0,0,0,0,0,0,0,0,0,0,0,0,0,0,0,0,0,0,0,0,0,0,0,0,0,0,0,0,0,0,0,0,0,0,0,0,0,0,0,0,0,0,0,0,0,0,0,0,0,0,0,0,0,0,0,0,0,0,0,0,0,0,0,0,0,0,0]}]]]